20060721,000021,1209600,34.426478,-120.542738,24.5,18.227,33.505,44.363,1280.38,0.0,4.540,18.076, NaN, NaN,24.072,   NaN,16.82,1013.27,96.07,16.82,63.5,71.8,4.5,3.2,327.2,342.9,5.1,5.1,NaN, NaN,18.0,200.6,201.5,1153440021,1153440021,2,9.9,000021,000021,200.6,34.426556,-120.542666,9.83,NaN,NaN,18.231, NaN,NaN,NaN, NaN, NaN
20060721,000051,1209631,34.425176,-120.543293,24.4,18.259,33.502,44.391,1212.33,0.0,4.615,18.091, NaN, NaN,24.062,   NaN,16.85,1013.29,96.12,16.86,67.9,73.1,4.7,3.3,327.5,342.3,5.5,5.2,NaN, NaN,18.0,200.3,198.5,1153440051,1153440051,2,10.1,000051,000051,200.3,34.425258,-120.543226,9.81,NaN,NaN,18.263, NaN,NaN,NaN, NaN, NaN
20060721,000121,1209661,34.423868,-120.543853,24.8,18.288,33.501,44.416,1181.48,0.0,4.746,18.097, NaN, NaN,24.053,   NaN,16.81,1013.37,96.06,16.82,65.9,73.9,4.4,3.3,330.6,342.2,5.3,5.3,NaN, NaN,18.0,200.1,201.1,1153440081,1153440081,2,10.0,000081,000081,200.1,34.423955,-120.543790,9.93,NaN,NaN,18.292, NaN,NaN,NaN, NaN, NaN
20060721,000151,1209690,34.422561,-120.544418,24.4,18.251,33.513,44.396,1268.69,0.0,4.653,18.104, NaN, NaN,24.072,   NaN,16.86,1013.25,96.23,16.87,60.2,72.3,4.3,3.1,328.4,344.6,4.8,5.1,NaN, NaN,17.0,199.4,199.7,1153440111,1153440111,2,10.1,000111,000111,199.4,34.422645,-120.544348,9.90,NaN,NaN,18.255, NaN,NaN,NaN, NaN, NaN
20060721,000221,1209720,34.421243,-120.544978,24.5,18.247,33.510,44.389,1158.95,0.0,4.839,18.113, NaN, NaN,24.071,   NaN,16.87,1013.29,96.22,16.87,62.8,72.4,4.7,3.3,325.4,343.0,5.2,5.2,NaN, NaN,17.0,200.4,201.2,1153440141,1153440141,2,10.2,000141,000141,200.4,34.421326,-120.544911,9.95,NaN,NaN,18.251, NaN,NaN,NaN, NaN, NaN
20060721,000251,1209750,34.419930,-120.545556,24.9,18.269,33.506,44.405,1126.66,0.0,4.746,18.123, NaN, NaN,24.062,   NaN,16.87,1013.24,96.14,16.88,65.5,73.6,4.5,3.4,328.7,341.8,5.3,5.3,NaN, NaN,18.0,199.7,200.9,1153440171,1153440171,2,10.0,000171,000171,199.7,34.420016,-120.545481,9.81,NaN,NaN,18.273, NaN,NaN,NaN, NaN, NaN
20060721,000321,1209780,34.418620,-120.546118,24.6,18.302,33.504,44.434,1168.29,0.0,4.690,18.122, NaN, NaN,24.052,   NaN,16.86,1013.33,96.15,16.87,62.6,71.6,4.7,3.0,325.3,345.6,5.2,5.1,NaN, NaN,18.0,199.1,200.3,1153440201,1153440201,2,9.9,000201,000201,199.1,34.418706,-120.546048,10.02,NaN,NaN,18.306, NaN,NaN,NaN, NaN, NaN
20060721,000352,1209811,34.417263,-120.546690,24.7,18.305,33.506,44.440,1197.62,0.0,4.821,18.116, NaN, NaN,24.053,   NaN,16.86,1013.29,96.12,16.86,60.5,69.4,5.0,2.8,321.5,347.3,5.1,4.9,NaN, NaN,18.0,199.9,196.3,1153440232,1153440232,2,10.1,000232,000232,199.9,34.417341,-120.546620,9.78,NaN,NaN,18.309, NaN,NaN,NaN, NaN, NaN
20060721,000421,1209841,34.415998,-120.547250,24.9,18.283,33.513,44.427,1201.22,0.0,4.989,18.114, NaN, NaN,24.064,   NaN,16.86,1013.26,96.19,16.87,60.9,70.8,4.9,3.1,323.1,344.7,5.1,5.1,NaN, NaN,18.0,200.6,199.9,1153440261,1153440261,2,10.2,000261,000261,200.6,34.416075,-120.547180,9.89,NaN,NaN,18.287, NaN,NaN,NaN, NaN, NaN
20060721,000451,1209870,34.414688,-120.547820,24.5,18.284,33.509,44.423,1208.75,0.0,4.783,18.118, NaN, NaN,24.060,   NaN,16.87,1013.28,96.20,16.87,63.7,73.5,4.6,3.4,327.4,342.7,5.1,5.3,NaN, NaN,18.0,200.1,199.4,1153440291,1153440291,2,10.1,000291,000291,200.1,34.414762,-120.547751,10.01,NaN,NaN,18.288, NaN,NaN,NaN, NaN, NaN
20060721,000521,1209900,34.413373,-120.548375,24.6,18.291,33.510,44.431,1134.06,0.0,4.877,18.132, NaN, NaN,24.060,   NaN,16.87,1013.24,96.19,16.87,62.6,73.8,4.6,3.3,326.6,343.4,5.1,5.3,NaN, NaN,17.0,200.8,198.3,1153440321,1153440321,2,10.0,000321,000321,200.8,34.413443,-120.548310,9.95,NaN,NaN,18.295, NaN,NaN,NaN, NaN, NaN
20060721,000551,1209930,34.412055,-120.548951,24.5,18.328,33.503,44.458,1045.01,0.0,5.064,18.147, NaN, NaN,24.045,   NaN,16.89,1013.26,96.22,16.89,57.2,67.9,5.1,2.9,319.2,348.2,4.9,5.0,NaN, NaN,18.0,200.1,202.5,1153440351,1153440351,2,10.1,000351,000351,200.1,34.412128,-120.548880,9.82,NaN,NaN,18.332, NaN,NaN,NaN, NaN, NaN
20060721,000621,1209960,34.410732,-120.549506,24.6,18.351,33.502,44.480,1012.84,0.0,4.989,18.170, NaN, NaN,24.039,   NaN,16.90,1013.25,96.22,16.90,58.2,65.7,5.4,2.8,316.5,348.9,5.2,4.9,NaN, NaN,17.0,199.4,201.6,1153440381,1153440381,2,10.3,000381,000381,199.6,34.410805,-120.549441,9.87,NaN,NaN,18.355, NaN,NaN,NaN, NaN, NaN
20060721,000651,1209991,34.409415,-120.550078,24.6,18.394,33.501,44.520,986.58,0.0,4.989,18.189, NaN, NaN,24.027,   NaN,16.94,1013.25,96.27,16.94,58.9,68.1,5.6,2.8,315.5,347.9,5.3,4.9,NaN, NaN,17.0,200.8,201.4,1153440411,1153440411,2,10.0,000411,000411,200.9,34.409488,-120.550008,10.00,NaN,NaN,18.398, NaN,NaN,NaN, NaN, NaN
20060721,000721,1210020,34.408100,-120.550650,24.7,18.421,33.501,44.546,980.75,0.0,4.821,18.200, NaN, NaN,24.021,   NaN,16.92,1013.28,96.14,16.92,60.1,70.8,5.2,3.0,319.4,346.6,5.2,5.1,NaN, NaN,17.0,199.7,196.7,1153440441,1153440441,2,10.1,000441,000441,199.7,34.408175,-120.550585,10.03,NaN,NaN,18.425, NaN,NaN,NaN, NaN, NaN
20060721,000751,1210050,34.406788,-120.551233,24.3,18.427,33.507,44.559,982.15,0.0,5.026,18.209, NaN, NaN,24.024,   NaN,16.93,1013.32,96.20,16.94,63.1,73.6,4.8,3.3,325.0,343.3,5.2,5.3,NaN, NaN,18.0,199.8,201.2,1153440471,1153440471,2,10.0,000471,000471,199.8,34.406862,-120.551171,10.04,NaN,NaN,18.431, NaN,NaN,NaN, NaN, NaN
20060721,000821,1210080,34.405475,-120.551818,24.8,18.423,33.510,44.559,1036.08,0.0,4.877,18.224, NaN, NaN,24.027,   NaN,16.98,1013.26,96.27,16.99,61.5,72.8,5.0,3.1,322.5,344.7,5.2,5.2,NaN, NaN,18.0,198.6,201.3,1153440501,1153440501,2,10.0,000501,000501,198.6,34.405543,-120.551750,10.17,NaN,NaN,18.427, NaN,NaN,NaN, NaN, NaN
20060721,000851,1210110,34.404155,-120.552390,24.5,18.439,33.508,44.572,1031.45,0.0,4.877,18.238, NaN, NaN,24.022,   NaN,16.96,1013.29,96.26,16.97,59.6,69.9,5.5,2.8,316.7,347.2,5.4,5.0,NaN, NaN,18.0,198.9,196.6,1153440531,1153440531,2,10.1,000531,000531,198.9,34.404223,-120.552326,10.00,NaN,NaN,18.443, NaN,NaN,NaN, NaN, NaN
20060721,000921,1210141,34.402838,-120.552981,24.4,18.463,33.505,44.591,1019.64,0.0,5.176,18.242, NaN, NaN,24.013,   NaN,16.96,1013.22,96.14,16.96,56.0,65.5,6.3,2.7,307.6,349.0,5.5,4.8,NaN, NaN,17.0,200.3,198.6,1153440561,1153440561,2,10.2,000561,000561,200.3,34.402910,-120.552918,10.02,NaN,NaN,18.467, NaN,NaN,NaN, NaN, NaN
20060721,000951,1210171,34.401530,-120.553595,24.5,18.446,33.515,44.587,978.31,0.0,5.101,18.242, NaN, NaN,24.025,   NaN,16.96,1013.24,96.16,16.96,52.8,62.8,6.8,2.4,301.0,352.1,5.5,4.6,NaN, NaN,18.0,199.8,198.0,1153440591,1153440591,2,10.2,000591,000591,199.8,34.401600,-120.553521,9.95,NaN,NaN,18.450, NaN,NaN,NaN, NaN, NaN
20060721,001021,1210200,34.400217,-120.554191,24.5,18.434,33.512,44.572,1035.59,0.0,4.989,18.246, NaN, NaN,24.026,   NaN,16.92,1013.29,96.04,16.92,54.5,63.3,7.1,2.5,300.7,351.9,5.9,4.6,NaN, NaN,18.0,200.1,200.2,1153440621,1153440621,2,10.4,000621,000621,200.1,34.400285,-120.554118,10.09,NaN,NaN,18.438, NaN,NaN,NaN, NaN, NaN
20060721,001051,1210230,34.398907,-120.554793,24.2,18.430,33.511,44.567,1086.55,0.0,5.157,18.246, NaN, NaN,24.026,   NaN,16.84,1013.26,96.01,16.85,54.6,60.6,7.5,2.3,297.6,353.2,6.2,4.5,NaN, NaN,17.0,199.4,201.2,1153440651,1153440651,2,9.8,000651,000651,199.4,34.398985,-120.554720,9.80,NaN,NaN,18.434, NaN,NaN,NaN, NaN, NaN
20060721,001121,1210260,34.397642,-120.555360,24.4,18.440,33.506,44.571,1209.70,0.0,5.194,18.255, NaN, NaN,24.020,   NaN,16.84,1013.25,95.99,16.84,51.4,58.4,7.4,2.2,295.8,354.3,5.8,4.4,NaN, NaN,17.0,198.8,201.1,1153440681,1153440681,2,9.8,000681,000681,198.8,34.397672,-120.555305,10.01,NaN,NaN,18.444, NaN,NaN,NaN, NaN, NaN
20060721,001151,1210290,34.396317,-120.556005,24.5,18.442,33.507,44.574,1112.99,0.0,5.120,18.276, NaN, NaN,24.021,   NaN,16.86,1013.29,95.99,16.86,51.1,60.6,7.2,2.3,298.1,354.7,5.7,4.5,NaN, NaN,17.0,212.6,209.2,1153440711,1153440711,2,9.9,000711,000711,212.6,34.396368,-120.555915,9.76,NaN,NaN,18.446, NaN,NaN,NaN, NaN, NaN
20060721,001221,1210321,34.395322,-120.557098,24.7,18.490,33.498,44.610,1238.05,0.0,4.951,18.306, NaN, NaN,24.002,   NaN,16.85,1013.34,96.00,16.86,47.6,52.3,8.0,3.1,300.7,353.3,6.0,4.0,NaN, NaN,17.0,240.5,233.3,1153440741,1153440741,2,9.8,000741,000741,240.5,34.395330,-120.556988,9.52,NaN,NaN,18.494, NaN,NaN,NaN, NaN, NaN
20060721,001251,1210351,34.394830,-120.558616,24.3,18.558,33.492,44.668,1194.26,0.0,4.765,18.319, NaN, NaN,23.980,   NaN,16.87,1013.30,96.00,16.87,34.4,32.4,10.3,6.8,296.2,322.3,6.9,4.5,NaN, NaN,20.0,249.3,251.2,1153440771,1153440771,2,10.2,000771,000771,249.3,34.394817,-120.558515,9.45,NaN,NaN,18.562, NaN,NaN,NaN, NaN, NaN
20060721,001321,1210380,34.394328,-120.560201,24.5,18.578,33.497,44.693,1022.53,0.0,4.914,18.324, NaN, NaN,23.978,   NaN,16.87,1013.36,96.02,16.86,25.8,23.0,11.8,10.0,291.1,292.3,7.6,5.8,NaN, NaN,21.0,249.0,246.3,1153440801,1153440801,2,10.6,000801,000801,249.0,34.394303,-120.560098,9.82,NaN,NaN,18.582, NaN,NaN,NaN, NaN, NaN
20060721,001351,1210410,34.393850,-120.561801,24.7,18.530,33.514,44.667,1030.76,0.0,5.026,18.337, NaN, NaN,24.003,   NaN,16.87,1013.37,96.01,16.87,24.2,22.1,12.2,10.8,289.0,288.9,7.8,6.3,NaN, NaN,21.0,248.5,249.9,1153440831,1153440831,2,10.1,000831,000831,248.5,34.393828,-120.561700,9.86,NaN,NaN,18.534, NaN,NaN,NaN, NaN, NaN
20060721,001421,1210440,34.393343,-120.563415,24.7,18.534,33.507,44.663,958.34,0.0,4.951,18.352, NaN, NaN,23.997,   NaN,16.85,1013.32,95.91,16.86,26.2,23.7,12.5,10.7,292.2,293.4,8.1,6.3,NaN, NaN,21.0,249.6,246.3,1153440861,1153440861,2,10.1,000861,000861,249.6,34.393322,-120.563313,9.90,NaN,NaN,18.538, NaN,NaN,NaN, NaN, NaN
20060721,001451,1210470,34.392853,-120.565060,24.6,18.569,33.499,44.688,903.65,0.0,4.970,18.364, NaN, NaN,23.983,   NaN,16.87,1013.39,95.98,16.87,29.1,25.6,12.1,9.7,297.7,300.8,7.9,5.4,NaN, NaN,21.0,249.4,246.7,1153440891,1153440891,2,10.2,000891,000891,249.4,34.392833,-120.564953,9.91,NaN,NaN,18.573, NaN,NaN,NaN, NaN, NaN
20060721,001522,1210501,34.392338,-120.566756,24.5,18.554,33.506,44.680,946.34,0.0,4.765,18.372, NaN, NaN,23.991,   NaN,16.90,1013.38,96.13,16.90,27.9,24.5,11.7,9.5,297.0,299.5,7.4,5.2,NaN, NaN,21.0,249.3,248.4,1153440922,1153440922,2,10.2,000922,000922,249.3,34.392320,-120.566646,9.93,NaN,NaN,18.558, NaN,NaN,NaN, NaN, NaN
20060721,001551,1210530,34.391860,-120.568346,24.5,18.568,33.504,44.692,990.58,0.0,4.858,18.385, NaN, NaN,23.987,   NaN,16.92,1013.39,96.06,16.91,25.2,22.4,12.1,10.4,292.4,292.7,7.6,5.8,NaN, NaN,22.0,249.8,246.4,1153440951,1153440951,2,10.5,000951,000951,249.8,34.391840,-120.568243,9.90,NaN,NaN,18.572, NaN,NaN,NaN, NaN, NaN
20060721,001621,1210560,34.391382,-120.569966,24.5,18.589,33.501,44.708,941.62,0.0,4.877,18.395, NaN, NaN,23.979,   NaN,16.95,1013.38,96.01,16.95,24.3,21.4,12.6,10.8,289.8,289.6,8.0,6.2,NaN, NaN,21.0,249.1,247.5,1153440981,1153440981,2,10.2,000981,000981,249.1,34.391367,-120.569863,9.99,NaN,NaN,18.593, NaN,NaN,NaN, NaN, NaN
20060721,001652,1210592,34.390885,-120.571625,24.6,18.611,33.501,44.730,927.92,0.0,4.933,18.395, NaN, NaN,23.973,   NaN,16.91,1013.34,95.93,16.91,25.5,22.5,12.3,10.8,291.9,291.1,7.9,6.3,NaN, NaN,21.0,250.1,251.0,1153441012,1153441012,2,10.3,001012,001012,250.1,34.390872,-120.571523,9.77,NaN,NaN,18.615, NaN,NaN,NaN, NaN, NaN
20060721,001721,1210620,34.390430,-120.573170,24.4,18.604,33.502,44.724,954.71,0.0,4.765,18.398, NaN, NaN,23.976,   NaN,16.96,1013.42,95.99,16.96,25.9,23.0,11.8,10.4,293.4,293.1,7.5,6.0,NaN, NaN,20.0,250.1,247.7,1153441041,1153441041,2,10.0,001041,001041,250.1,34.390413,-120.573063,9.92,NaN,NaN,18.608, NaN,NaN,NaN, NaN, NaN
20060721,001751,1210651,34.389975,-120.574773,24.5,18.604,33.504,44.727,1093.86,0.0,4.765,18.410, NaN, NaN,23.977,   NaN,16.94,1013.28,95.93,16.95,24.5,21.9,11.8,10.4,291.2,291.2,7.4,5.9,NaN, NaN,21.0,249.4,250.9,1153441071,1153441071,2,10.1,001071,001071,249.4,34.389957,-120.574668,9.77,NaN,NaN,18.608, NaN,NaN,NaN, NaN, NaN
20060721,001821,1210681,34.389502,-120.576348,24.5,18.621,33.501,44.740,953.41,0.0,4.615,18.428, NaN, NaN,23.971,   NaN,16.96,1013.35,95.80,16.96,25.0,22.0,12.0,10.8,291.4,289.6,7.6,6.4,NaN, NaN,21.0,251.1,253.0,1153441101,1153441101,2,10.0,001101,001101,251.1,34.389492,-120.576243,9.66,NaN,NaN,18.625, NaN,NaN,NaN, NaN, NaN
20060721,001851,1210710,34.389055,-120.577926,24.5,18.659,33.495,44.769,926.81,0.0,4.653,18.456, NaN, NaN,23.957,   NaN,16.92,1013.34,95.68,16.92,26.3,23.6,12.1,10.7,293.1,292.4,7.9,6.4,NaN, NaN,21.0,250.3,251.8,1153441131,1153441131,2,10.2,001131,001131,250.3,34.389042,-120.577823,9.60,NaN,NaN,18.663, NaN,NaN,NaN, NaN, NaN
20060721,001921,1210740,34.388597,-120.579523,24.3,18.706,33.493,44.813,879.47,0.0,4.615,18.484, NaN, NaN,23.944,   NaN,16.94,1013.36,95.76,16.95,26.1,23.4,12.1,10.5,292.9,292.7,7.8,6.2,NaN, NaN,20.0,249.9,252.7,1153441161,1153441161,2,10.2,001161,001161,249.9,34.388582,-120.579418,9.71,NaN,NaN,18.710, NaN,NaN,NaN, NaN, NaN
20060721,001951,1210770,34.388130,-120.581118,24.5,18.748,33.491,44.851,876.82,0.0,4.634,18.506, NaN, NaN,23.931,   NaN,16.92,1013.39,95.75,16.93,27.3,23.8,11.8,10.2,295.4,294.6,7.6,5.9,NaN, NaN,21.0,250.1,249.6,1153441191,1153441191,2,10.1,001191,001191,250.1,34.388122,-120.581011,9.67,NaN,NaN,18.752, NaN,NaN,NaN, NaN, NaN
20060721,002021,1210800,34.387678,-120.582720,24.5,18.763,33.496,44.872,880.19,0.0,4.634,18.519, NaN, NaN,23.932,   NaN,16.95,1013.35,95.80,16.97,28.2,24.9,11.7,9.8,297.1,297.9,7.6,5.6,NaN, NaN,19.0,249.1,246.6,1153441221,1153441221,2,9.9,001221,001221,249.1,34.387672,-120.582613,9.64,NaN,NaN,18.768, NaN,NaN,NaN, NaN, NaN
20060721,002051,1210831,34.387225,-120.584326,24.5,18.765,33.498,44.876,801.74,0.0,4.634,18.529, NaN, NaN,23.932,   NaN,16.93,1013.36,95.74,16.94,30.4,26.7,11.2,9.0,301.6,305.1,7.3,4.9,NaN, NaN,18.0,250.3,255.5,1153441251,1153441251,2,10.0,001251,001251,250.3,34.387223,-120.584216,9.64,NaN,NaN,18.770, NaN,NaN,NaN, NaN, NaN
20060721,002121,1210860,34.386780,-120.585946,24.5,18.767,33.498,44.878,776.10,0.0,4.783,18.536, NaN, NaN,23.933,   NaN,16.98,1013.33,95.84,16.99,30.6,26.9,10.7,8.5,303.8,308.6,6.7,4.5,NaN, NaN,17.0,249.8,256.8,1153441281,1153441281,2,10.4,001281,001281,249.8,34.386780,-120.585843,9.86,NaN,NaN,18.772, NaN,NaN,NaN, NaN, NaN
20060721,002151,1210890,34.386327,-120.587561,24.7,18.758,33.498,44.870,821.18,0.0,4.671,18.535, NaN, NaN,23.934,   NaN,17.01,1013.25,95.85,17.02,28.5,25.9,11.3,9.2,298.9,303.6,7.2,5.0,NaN, NaN,16.0,249.4,250.2,1153441311,1153441311,2,10.2,001311,001311,249.4,34.386323,-120.587453,9.84,NaN,NaN,18.763, NaN,NaN,NaN, NaN, NaN
20060721,002221,1210920,34.385882,-120.589168,24.5,18.752,33.501,44.868,883.37,0.0,4.746,18.532, NaN, NaN,23.938,   NaN,16.99,1013.35,95.71,16.99,28.8,25.5,11.9,9.5,297.5,300.7,7.8,5.3,NaN, NaN,16.0,249.4,249.9,1153441341,1153441341,2,9.9,001341,001341,249.4,34.385875,-120.589061,9.73,NaN,NaN,18.757, NaN,NaN,NaN, NaN, NaN
20060721,002251,1210950,34.385435,-120.590775,24.6,18.747,33.500,44.862,1113.76,0.0,4.802,18.533, NaN, NaN,23.939,   NaN,17.01,1013.29,95.79,17.03,30.1,25.6,11.4,9.0,300.6,302.9,7.4,4.9,NaN, NaN,16.0,249.9,251.9,1153441371,1153441371,2,10.1,001371,001371,249.9,34.385422,-120.590666,9.68,NaN,NaN,18.751, NaN,NaN,NaN, NaN, NaN
20060721,002321,1210981,34.384992,-120.592368,24.4,18.750,33.500,44.865,1116.64,0.0,4.671,18.530, NaN, NaN,23.938,   NaN,17.02,1013.27,95.84,17.02,29.7,25.5,11.5,9.4,299.8,300.8,7.5,5.3,NaN, NaN,16.0,249.8,251.1,1153441401,1153441401,2,10.0,001401,001401,249.8,34.384980,-120.592256,9.64,NaN,NaN,18.755, NaN,NaN,NaN, NaN, NaN
20060721,002351,1211011,34.384550,-120.593943,24.6,18.742,33.502,44.858,923.29,0.0,4.578,18.533, NaN, NaN,23.942,   NaN,16.99,1013.36,95.69,17.00,27.8,24.1,12.2,10.3,295.2,294.8,8.0,6.0,NaN, NaN,16.0,249.8,248.3,1153441431,1153441431,2,9.8,001431,001431,249.8,34.384535,-120.593830,9.61,NaN,NaN,18.746, NaN,NaN,NaN, NaN, NaN
20060721,002421,1211040,34.384098,-120.595516,24.4,18.742,33.502,44.858,896.79,0.0,4.540,18.536, NaN, NaN,23.942,   NaN,17.00,1013.26,95.64,17.01,26.2,22.9,12.1,10.4,292.5,291.8,7.9,6.1,NaN, NaN,16.0,250.4,252.1,1153441461,1153441461,2,10.1,001461,001461,250.4,34.384090,-120.595408,9.50,NaN,NaN,18.746, NaN,NaN,NaN, NaN, NaN
20060721,002451,1211070,34.383652,-120.597091,24.4,18.769,33.493,44.874,870.74,0.0,4.578,18.543, NaN, NaN,23.928,   NaN,16.96,1013.38,95.59,16.96,24.9,22.1,11.9,10.4,291.1,290.5,7.6,6.0,NaN, NaN,16.0,249.3,251.9,1153441491,1153441491,2,9.8,001491,001491,249.3,34.383648,-120.596981,9.66,NaN,NaN,18.774, NaN,NaN,NaN, NaN, NaN
20060721,002522,1211102,34.383207,-120.598716,24.7,18.756,33.500,44.870,897.11,0.0,4.503,18.553, NaN, NaN,23.937,   NaN,16.96,1013.39,95.65,16.97,24.6,22.0,11.8,10.4,290.7,290.2,7.5,6.0,NaN, NaN,16.0,249.9,252.7,1153441522,1153441521,2,10.0,001522,001521,249.9,34.383208,-120.598553,9.50,NaN,NaN,18.761, NaN,NaN,NaN, NaN, NaN
20060721,002552,1211131,34.382763,-120.600278,24.6,18.772,33.498,44.883,880.11,0.0,4.578,18.567, NaN, NaN,23.931,   NaN,16.93,1013.34,95.58,16.92,24.0,21.7,11.7,10.3,290.0,290.0,7.4,5.9,NaN, NaN,16.0,249.8,250.9,1153441552,1153441552,2,9.9,001552,001552,249.8,34.382760,-120.600165,9.33,NaN,NaN,18.777, NaN,NaN,NaN, NaN, NaN
20060721,002622,1211161,34.382333,-120.601843,24.5,18.803,33.495,44.909,881.56,0.0,4.746,18.584, NaN, NaN,23.921,   NaN,16.94,1013.33,95.64,16.95,23.7,20.8,11.8,10.5,289.4,287.9,7.5,6.1,NaN, NaN,18.0,249.8,251.1,1153441582,1153441582,2,9.7,001582,001582,249.8,34.382330,-120.601733,9.80,NaN,NaN,18.808, NaN,NaN,NaN, NaN, NaN
20060721,002652,1211191,34.381975,-120.603408,24.5,18.831,33.493,44.934,811.66,0.0,4.765,18.600, NaN, NaN,23.912,   NaN,16.98,1013.43,95.63,17.00,22.9,20.2,11.7,10.6,290.4,288.7,7.3,6.1,NaN, NaN,18.0,264.9,260.7,1153441612,1153441612,2,9.9,001612,001612,264.9,34.381947,-120.603305,9.35,NaN,NaN,18.836, NaN,NaN,NaN, NaN, NaN
20060721,002722,1211221,34.382027,-120.605046,24.6,18.846,33.495,44.951,772.22,0.0,4.821,18.617, NaN, NaN,23.910,   NaN,16.97,1013.36,95.66,16.97,16.8,15.7,11.4,10.6,291.5,291.4,6.8,6.0,NaN, NaN,21.0,278.8,274.3,1153441642,1153441642,2,9.8,001642,001642,278.8,34.381977,-120.604953,9.46,NaN,NaN,18.851, NaN,NaN,NaN, NaN, NaN
20060721,002751,1211250,34.382333,-120.606611,24.6,18.870,33.491,44.970,772.35,0.0,4.858,18.625, NaN, NaN,23.901,   NaN,16.96,1013.30,95.60,16.98,9.2,7.7,11.4,11.0,291.6,289.5,6.5,6.1,NaN, NaN,24.0,279.1,283.1,1153441671,1153441671,2,9.9,001671,001671,279.1,34.382283,-120.606518,9.47,NaN,NaN,18.875, NaN,NaN,NaN, NaN, NaN
20060721,002821,1211280,34.382622,-120.608278,24.5,18.863,33.500,44.973,759.32,0.0,5.008,18.632, NaN, NaN,23.910,   NaN,16.97,1013.28,95.51,16.97,7.0,4.6,11.6,11.5,292.2,287.9,6.5,6.4,NaN, NaN,24.0,281.0,282.2,1153441701,1153441701,2,10.7,001701,001701,281.0,34.382558,-120.608186,9.68,NaN,NaN,18.868, NaN,NaN,NaN, NaN, NaN
20060721,002851,1211310,34.383013,-120.609863,24.7,18.878,33.493,44.979,770.70,0.0,5.026,18.633, NaN, NaN,23.901,   NaN,16.94,1013.35,95.52,16.96,5.8,3.7,11.9,11.8,292.4,288.6,6.8,6.7,NaN, NaN,24.0,285.6,290.6,1153441731,1153441731,2,10.0,001731,001731,285.4,34.382947,-120.609781,9.42,NaN,NaN,18.883, NaN,NaN,NaN, NaN, NaN
20060721,002921,1211341,34.383415,-120.611488,24.6,18.855,33.502,44.968,786.62,0.0,5.082,18.640, NaN, NaN,23.913,   NaN,16.96,1013.34,95.43,16.96,3.2,1.5,12.2,12.1,290.3,287.4,7.1,7.0,NaN, NaN,22.0,284.9,284.6,1153441761,1153441761,2,10.6,001761,001761,285.3,34.383353,-120.611413,9.38,NaN,NaN,18.860, NaN,NaN,NaN, NaN, NaN
20060721,002952,1211371,34.383855,-120.613168,24.6,18.861,33.491,44.961,759.92,0.0,5.045,18.642, NaN, NaN,23.903,   NaN,17.00,1013.31,95.58,16.99,3.5,2.2,12.2,12.0,291.1,289.0,7.0,6.8,NaN, NaN,22.0,285.1,290.9,1153441792,1153441792,2,10.0,001792,001792,284.9,34.383798,-120.613093,9.40,NaN,NaN,18.866, NaN,NaN,NaN, NaN, NaN
20060721,003021,1211400,34.384260,-120.614758,24.6,18.872,33.496,44.977,759.40,0.0,5.064,18.631, NaN, NaN,23.904,   NaN,16.95,1013.31,95.40,16.95,5.1,3.3,12.0,11.8,294.0,290.9,6.8,6.6,NaN, NaN,22.0,284.8,285.2,1153441821,1153441821,2,10.4,001821,001821,284.8,34.384200,-120.614680,9.64,NaN,NaN,18.877, NaN,NaN,NaN, NaN, NaN
20060721,003051,1211430,34.384682,-120.616401,24.2,18.849,33.504,44.965,765.65,0.0,5.064,18.614, NaN, NaN,23.916,   NaN,16.98,1013.26,95.52,16.98,5.9,4.0,12.0,11.7,295.2,292.0,6.8,6.4,NaN, NaN,23.0,284.8,285.7,1153441851,1153441851,2,10.3,001851,001851,284.8,34.384623,-120.616320,9.71,NaN,NaN,18.854, NaN,NaN,NaN, NaN, NaN
20060721,003121,1211460,34.385092,-120.618035,24.6,18.808,33.505,44.926,736.81,0.0,5.064,18.598, NaN, NaN,23.927,   NaN,16.96,1013.24,95.40,16.97,6.7,5.0,11.7,11.5,296.9,293.9,6.5,6.3,NaN, NaN,24.0,284.9,286.3,1153441881,1153441881,2,10.6,001881,001881,284.9,34.385042,-120.617956,9.86,NaN,NaN,18.813, NaN,NaN,NaN, NaN, NaN
20060721,003151,1211491,34.385513,-120.619668,24.6,18.775,33.506,44.896,734.72,0.0,4.877,18.591, NaN, NaN,23.936,   NaN,16.97,1013.19,95.42,16.97,9.2,6.5,11.3,11.1,301.8,297.1,6.1,5.9,NaN, NaN,24.0,284.9,286.4,1153441911,1153441911,2,10.1,001911,001911,284.9,34.385463,-120.619595,9.61,NaN,NaN,18.780, NaN,NaN,NaN, NaN, NaN
20060721,003221,1211521,34.385935,-120.621315,24.3,18.787,33.503,44.903,724.35,0.0,5.138,18.581, NaN, NaN,23.931,   NaN,16.98,1013.36,95.53,16.98,12.5,9.3,11.4,10.8,307.7,302.8,6.3,5.7,NaN, NaN,23.0,285.1,286.0,1153441941,1153441941,2,10.3,001941,001941,285.1,34.385893,-120.621245,9.66,NaN,NaN,18.792, NaN,NaN,NaN, NaN, NaN
20060721,003251,1211550,34.386373,-120.622965,24.2,18.788,33.502,44.904,705.81,0.0,5.194,18.573, NaN, NaN,23.930,   NaN,16.98,1013.56,95.47,16.98,14.3,11.8,11.5,10.8,310.7,307.6,6.5,5.7,NaN, NaN,23.0,285.1,288.2,1153441971,1153441971,2,10.1,001971,001971,285.1,34.386320,-120.622893,9.80,NaN,NaN,18.793, NaN,NaN,NaN, NaN, NaN
20060721,003321,1211580,34.386795,-120.624593,24.3,18.785,33.503,44.901,727.51,0.0,5.157,18.563, NaN, NaN,23.931,   NaN,16.99,1013.30,95.53,17.00,15.1,13.1,11.9,11.1,311.5,309.5,6.9,6.0,NaN, NaN,23.0,285.4,291.9,1153442001,1153442001,2,10.4,002001,002001,285.4,34.386757,-120.624523,9.76,NaN,NaN,18.790, NaN,NaN,NaN, NaN, NaN
20060721,003351,1211610,34.387222,-120.626221,24.5,18.771,33.506,44.892,687.87,0.0,5.064,18.546, NaN, NaN,23.938,   NaN,16.96,1013.43,95.44,16.96,16.2,13.5,12.1,11.3,312.7,309.8,7.3,6.3,NaN, NaN,25.0,284.9,288.5,1153442031,1153442031,2,10.3,002031,002031,284.9,34.387183,-120.626146,9.61,NaN,NaN,18.776, NaN,NaN,NaN, NaN, NaN
20060721,003422,1211641,34.387680,-120.627901,24.5,18.746,33.509,44.871,668.18,0.0,4.970,18.525, NaN, NaN,23.946,   NaN,16.97,1013.49,95.53,16.98,16.1,13.5,12.0,11.2,312.6,309.6,7.2,6.3,NaN, NaN,25.0,285.5,287.5,1153442062,1153442062,2,10.2,002062,002062,285.5,34.387632,-120.627830,9.73,NaN,NaN,18.750, NaN,NaN,NaN, NaN, NaN
20060721,003451,1211671,34.388115,-120.629468,24.4,18.716,33.511,44.844,686.08,0.0,4.933,18.508, NaN, NaN,23.955,   NaN,16.93,1013.36,95.52,16.94,15.1,12.6,12.1,11.4,311.0,308.0,7.2,6.3,NaN, NaN,24.0,284.4,287.7,1153442091,1153442091,2,9.9,002091,002091,284.4,34.388060,-120.629401,9.79,NaN,NaN,18.720, NaN,NaN,NaN, NaN, NaN
20060721,003521,1211701,34.388547,-120.631118,24.6,18.698,33.508,44.823,671.19,0.0,5.082,18.489, NaN, NaN,23.957,   NaN,16.93,1013.31,95.53,16.93,15.7,12.5,12.1,11.5,311.9,307.5,7.2,6.4,NaN, NaN,24.0,285.1,287.8,1153442121,1153442121,2,10.6,002121,002121,285.1,34.388493,-120.631058,9.97,NaN,NaN,18.702, NaN,NaN,NaN, NaN, NaN
20060721,003552,1211731,34.389023,-120.632828,24.5,18.675,33.510,44.803,643.00,0.0,5.232,18.475, NaN, NaN,23.964,   NaN,16.92,1013.33,95.61,16.93,16.1,12.8,12.0,11.4,312.7,308.3,7.1,6.3,NaN, NaN,23.0,284.4,289.0,1153442152,1153442152,2,10.6,002152,002152,284.4,34.388957,-120.632763,9.80,NaN,NaN,18.679, NaN,NaN,NaN, NaN, NaN
20060721,003622,1211762,34.389463,-120.634443,24.6,18.668,33.508,44.793,651.69,0.0,5.288,18.462, NaN, NaN,23.965,   NaN,16.91,1013.32,95.60,16.92,15.6,13.1,12.0,11.3,311.8,308.7,7.1,6.3,NaN, NaN,23.0,284.6,287.1,1153442182,1153442182,2,10.4,002182,002182,284.6,34.389400,-120.634383,9.95,NaN,NaN,18.672, NaN,NaN,NaN, NaN, NaN